Zurück zum Katalog

SL-14 R/B

AktivPO
NORAD 22693·ROCKET BODY·🇷🇺 Russia

Gestartet Jun 24, 1993 von Plesetsk Cosmodrome

Loading…

Nächste Überflüge (nächste 24 Stunden)

TLE

AktuellSource: Space-Track

Epoche: Sep 14, 2026, 13:00 UTC

1 22693U 93038G   26257.54180757  .00000007  00000-0 -22684-4 0  9998
2 22693  82.5831 293.4946 0046852 123.5837  43.9287 12.54835920522227

Verfolge SL-14 R/B in Echtzeit mit AllMySat

Download on the App Store